Location: Chilton Park
(37.7711°N, 100.0276°W)
Time: 19:59:20
(UTC+00:00)

Cosmos 2297 Rocket - Pass Details

Date: 08 December 2021
Orbit: 838 x 845 km, 71.0° (Epoch: 16 January)

Event Time Altitude Azimuth Distance (km) Brightness Sun altitude
Rises 12:25:37 0° 348° (NNW) 3,407 5.1 -14.9°
Reaches altitude 10° 12:28:26 10° 360° (N) 2,470 4.4 -14.4°
Maximum altitude 12:33:14 28° 58° (ENE) 1,542 4.0 -13.5°
Drops below altitude 10° 12:38:02 10° 116° (ESE) 2,460 6.1 -12.6°
Sets 12:40:49 0° 128° (SE) 3,392 6.9 -12.1°
